TIANTONG-1 1 (41725 NORAD) Tracking and Keplerian Element Data

This shows tracking and keplerian element data for the satellite.

Feedback or suggestion? Click here.




ElementValue
Catalog41725
NameTIANTONG-1 1
Epoch Orbit3447
Epoch Day354.28602652
Epoch Year2025
RAAN41.5716
Inclination3.5124
Eccentricity0.0002591
Argument of Perigee317.5559
Mean Anonmoly294.3955
Mean Motion1.00272357
Decay Rate-2.96E-06
L11 41725U 16048A 25354.28602652 -.00000296 00000+0 00000+0 0 9994
L22 41725 3.5124 41.5716 0002591 317.5559 294.3955 1.00272357 34474



Live tracking and technical data element details for TIANTONG-1 1 (NORAD 41725). TIANTONG-1 1 can be tracked NOW for your location showing map with azimuth and elevation plus other details from your city location.







IsCatalogInMostPopularTable: catalog: 41725, numindb: 1578
Update: records affected: 1



GetName: 41725 TIANTONG-1 1

Hit Count: updated at: Mon, 11 May 2026 11:44:43 GMT